Weather in Podgoshchi

Russia / Novgorod Oblast     58°09′39″N   30°44′16″E
temp.,
°C
wind,
m/s
gust,
m/s
humid.,
%
clouds,
%
prec.,
mm/h
press.,
hPa
HPBL,
m
17 june, thu
thu1700:00+12wnw11745 0.0 102110
03:00+11wsw227049 0.0 102220
06:00+12wsw23755 0.0 102384
09:00+18wsw24555 0.0 1024437
12:00+22wsw34460 0.0 10241534
15:00+24wsw24414 0.0 10241903
18:00+25sw234893 0.0 10241656
21:00+19ssw2274100 0.0 102412
18 june, fri
fri1800:00+17sw337294 0.0 102553
03:00+15ssw227598 0.0 102536
06:00+15ssw26795 0.0 1025131
09:00+21sw35607 0.0 1025388
12:00+25sw46475 0.0 10241304
15:00+27sw46430 0.0 10231750
18:00+27sw36510 0.0 10221322
21:00+21sw33740 0.0 102241
19 june, sat
sat1900:00+18sw34780 0.0 102261
03:00+16sw310850 0.0 1023185
06:00+17sw310840 0.0 1023238
09:00+22sw45665 0.0 1023467
12:00+26sw46504 0.0 10221542
15:00+28ssw464318 0.0 10211941
18:00+28ssw35525 0.0 10201428
21:00+22ssw34730 0.0 102065
20 june, sun
sun2000:00+19ssw34815 0.0 102062
03:00+17sw36840 0.0 1021110
06:00+18sw38840 0.0 1021201
09:00+23ssw46673 0.0 1020471
12:00+27ssw45550 0.0 10201387
15:00+29ssw45452 0.0 10192088
18:00+29ssw355221 0.0 10181497
21:00+23ssw23730 0.0 101847
21 june, mon
mon2100:00+20ssw34800 0.0 101851
03:00+19wsw228522 0.0 101918
06:00+20sw23820 0.0 101985
09:00+25sw23660 0.0 1019435
12:00+29s23545 0.0 10191372
15:00+31sse234526 0.0 10182051
18:00+29se235655 0.0 1017589
21:00+24ese337476 0.2 101844